Weather History for Pula, Croatia

Change the Weather History Date:

Tuesday, November 12, 2013

  Actual Average (LIVT) Record (LIVT)
Temperature  
Mean Temperature 56 °F -  
Max Temperature 61 °F 56 °F 69 °F (1996)
Min Temperature 51 °F 49 °F 42 °F (2003)
Degree Days  
Heating Degree Days 9    
Growing Degree Days 6 (Base 50)    
Moisture  
Dew Point 43 °F    
Average Humidity 62    
Maximum Humidity 76    
Minimum Humidity 44    
Precipitation  
Precipitation 0.00 in - - ()
Sea Level Pressure  
Sea Level Pressure 30.07 in    
Wind  
Wind Speed 19 mph ()    
Max Wind Speed 34 mph    
Max Gust Speed 46 mph    
Visibility 19.0 miles    
Events      
Averages and records for this station are not official NWS values.
T = Trace of Precipitation, MM = Missing Value Source: Averaged Metar Reports

Daily Weather History Graph

Daily Weather History Graph

Search for Another Location

Airport:

Trip Planner

Search our weather history database for the weather conditions in past years. The results will help you decide how hot, cold, wet, or windy it might be!

Date:

Astronomy

Nov. 12, 2013 Rise Set
Actual Time 6:57 AM CET 4:38 PM CET
Civil Twilight 6:26 AM CET 5:10 PM CET
Nautical Twilight 5:50 AM CET 5:45 PM CET
Astronomical Twilight 5:16 AM CET 6:19 PM CET
Moon 1:55 PM CET (11/12) 1:15 AM CET (11/12)
Length of Visible Light 10h 44m
Length of Day
9h 41m
Waxing Gibbous, 74% of the Moon is Illuminated
Nov 12
Waxing Gibbous
Nov 17
Full
Nov 25
Last Quarter
Dec 3
New
Dec 9
First Quarter

Hourly Weather History & Observations

Time (CET) Temp. Dew Point Humidity Pressure Visibility Wind Dir Wind Speed Gust Speed Precip Events Conditions
12:00 AM 53.6 °F 39.2 °F 58% 30.04 in - NE 25.3 mph - N/A   Clear
12:30 AM 53.6 °F 37.4 °F 54% 30.04 in - ENE 28.8 mph 41.4 mph N/A   Clear
1:00 AM 54 °F 38 °F 44% 30.06 in 19 mi ENE 33.6 mph - -   Mostly Cloudy
1:00 AM 53.6 °F 39.2 °F 58% 30.04 in - ENE 33.4 mph 46.0 mph N/A   Clear
1:30 AM 53.6 °F 39.2 °F 58% 30.06 in - ENE 32.2 mph - N/A   Clear
2:00 AM 53.6 °F 39.2 °F 58% 30.06 in - ENE 27.6 mph - N/A   Clear
2:30 AM 53.6 °F 39.2 °F 58% 30.06 in - NE 19.6 mph 34.5 mph N/A   Clear
3:00 AM 53.6 °F 39.2 °F 58% 30.06 in - NE 20.7 mph - N/A   Clear
3:30 AM 53.6 °F 39.2 °F 58% 30.04 in - ENE 24.2 mph 35.7 mph N/A   Clear
4:00 AM 53 °F 40 °F 50% 30.07 in 19 mi NE 17.9 mph - -   Mostly Cloudy
4:00 AM 51.8 °F 39.2 °F 62% 30.06 in - NE 18.4 mph 29.9 mph N/A   Clear
4:30 AM 53.6 °F 41.0 °F 62% 30.06 in - ENE 24.2 mph - N/A   Clear
5:00 AM 53 °F 40 °F 51% 30.08 in 19 mi NE 15.7 mph - -   Mostly Cloudy
5:00 AM 53.6 °F 41.0 °F 62% 30.06 in - NE 17.3 mph - N/A   Clear
5:30 AM 53.6 °F 41.0 °F 62% 30.06 in - ENE 23.0 mph - N/A   Clear
6:00 AM 53 °F 41 °F 54% 30.06 in 19 mi ENE 24.6 mph - -   Mostly Cloudy
6:00 AM 53.6 °F 41.0 °F 62% 30.04 in - ENE 25.3 mph 39.1 mph N/A   Clear
6:30 AM 51.8 °F 41.0 °F 67% 30.06 in - ENE 18.4 mph 31.1 mph N/A   Clear
7:00 AM 52 °F 41 °F 57% 30.09 in 25 mi ENE 17.9 mph - -   Partly Cloudy
7:00 AM 51.8 °F 41.0 °F 67% 30.06 in - ENE 18.4 mph - N/A   Clear
7:30 AM 51.8 °F 41.0 °F 67% 30.06 in - ENE 19.6 mph 31.1 mph N/A   Clear
8:00 AM 53.6 °F 41.0 °F 62% 30.09 in - NE 13.8 mph - N/A   Clear
8:30 AM 53.6 °F 42.8 °F 67% 30.06 in - ENE 25.3 mph 39.1 mph N/A   Clear
9:00 AM 55.4 °F 42.8 °F 63% 30.09 in - ENE 20.7 mph - N/A   Clear
9:30 AM 55.4 °F 42.8 °F 63% 30.06 in - ENE 21.9 mph - N/A   Clear
10:00 AM 54 °F 42 °F 54% 30.10 in 25 mi ENE 26.8 mph - -   Partly Cloudy
10:00 AM 53.6 °F 42.8 °F 67% 30.09 in - ENE 27.6 mph - N/A   Clear
10:30 AM 55.4 °F 42.8 °F 63% 30.09 in - ENE 25.3 mph - N/A   Clear
11:00 AM 57.2 °F 44.6 °F 63% 30.09 in - ENE 24.2 mph - N/A   Clear
11:30 AM 57.2 °F 42.8 °F 59% 30.09 in - ENE 26.5 mph - N/A   Clear
12:00 PM 55.4 °F 42.8 °F 63% 30.09 in - ENE 20.7 mph - N/A   Clear
12:30 PM 55.4 °F 42.8 °F 63% 30.09 in - NE 13.8 mph - N/A   Clear
1:00 PM 57 °F 43 °F 49% 30.10 in 25 mi NE 13.4 mph - -   Mostly Cloudy
1:00 PM 57.2 °F 42.8 °F 59% 30.09 in - NE 13.8 mph - N/A   Clear
1:30 PM 60.8 °F 44.6 °F 55% 30.06 in - NE 16.1 mph - N/A   Clear
2:00 PM 59.0 °F 46.4 °F 63% 30.06 in - ENE 15.0 mph - N/A   Clear
2:30 PM 59.0 °F 44.6 °F 59% 30.06 in - ENE 17.3 mph - N/A   Clear
3:00 PM 57.2 °F 44.6 °F 63% 30.09 in - ENE 13.8 mph - N/A   Clear
3:30 PM 57.2 °F 44.6 °F 63% 30.09 in - ENE 8.1 mph - N/A   Clear
4:00 PM 56 °F 45 °F 58% 30.09 in 25 mi ENE 13.4 mph - -   Clear
4:00 PM 57.2 °F 44.6 °F 63% 30.06 in - ENE 12.7 mph - N/A   Clear
4:30 PM 55.4 °F 44.6 °F 67% 30.09 in - ENE 11.5 mph - N/A   Clear
5:00 PM 53.6 °F 44.6 °F 72% 30.09 in - ENE 15.0 mph - N/A   Clear
5:30 PM 53.6 °F 44.6 °F 72% 30.09 in - ENE 12.7 mph - N/A   Clear
6:00 PM 53.6 °F 44.6 °F 72% 30.09 in - ENE 15.0 mph - N/A   Clear
6:30 PM 53.6 °F 44.6 °F 72% 30.09 in - ENE 12.7 mph - N/A   Clear
7:00 PM 54 °F 44 °F 60% 30.10 in 25 mi East 13.4 mph - -  
7:00 PM 53.6 °F 44.6 °F 72% 30.09 in - East 12.7 mph - N/A   Clear
7:30 PM 55.4 °F 44.6 °F 67% 30.06 in - East 17.3 mph - N/A   Clear
8:00 PM 55.4 °F 44.6 °F 67% 30.06 in - East 15.0 mph - N/A   Clear
8:30 PM 53.6 °F 44.6 °F 72% 30.06 in - East 13.8 mph - N/A   Clear
9:00 PM 53.6 °F 44.6 °F 72% 30.06 in - ENE 10.4 mph - N/A   Clear
9:30 PM 53.6 °F 44.6 °F 72% 30.06 in - ENE 8.1 mph - N/A   Clear
10:00 PM 54 °F 45 °F 63% 30.07 in 25 mi ENE 8.9 mph - -   Scattered Clouds
10:00 PM 55.4 °F 44.6 °F 67% 30.06 in - ENE 10.4 mph - N/A   Clear
10:30 PM 55.4 °F 44.6 °F 67% 30.06 in - ENE 10.4 mph - N/A   Clear
11:00 PM 55.4 °F 44.6 °F 67% 30.06 in - Variable 3.5 mph - N/A   Clear
11:30 PM 51.8 °F 44.6 °F 76% 30.06 in - Variable 1.2 mph - N/A   Clear